[Iaude] MPEC U129: 2013 UM17 [a=42.31,e=0.08,i=13.0,H=7.7]

mpec at mpcdb1.cfa.harvard.edu mpec at mpcdb1.cfa.harvard.edu
Thu Oct 19 21:01:16 EDT 2017


M.P.E.C. 2017-U129                               Issued 2017 Oct. 20, 00:56 UT
 
     The Minor Planet Electronic Circulars contain information on unusual
         minor planets and routine data on comets.  They are published
    on behalf of Division F of the International Astronomical Union by the
          Minor Planet Center, Smithsonian Astrophysical Observatory,
                          Cambridge, MA 02138, U.S.A.

             Prepared using the Tamkin Foundation Computer Network

                              MPC at CFA.HARVARD.EDU
            URL http://www.minorplanetcenter.net/    ISSN 1523-6714


                                   2013 UM17
 
Observations:
     K13U17M @C2004 09 21.40762 00 10 26.60 +01 47 21.9          23.4 rcEU129568
     K13U17M @C2004 09 21.43876 00 10 26.45 +01 47 21.0          23.5 rcEU129568
     K13U17M @C2004 09 21.46760 00 10 26.35 +01 47 20.0          23.8 rcEU129568
     K13U17M @C2004 09 22.41259 00 10 22.08 +01 46 49.9          23.2 rcEU129568
     K13U17M @C2013 08 02.51631 01 03 07.488+04 22 09.95         23.9 rqEU129568
     K13U17M @C2013 08 02.55904 01 03 07.429+04 22 09.23         23.6 rqEU129568
     K13U17M @C2013 08 30.43177 01 02 03.856+04 12 46.77         23.6 rqEU129568
     K13U17M @C2013 08 31.43593 01 02 00.592+04 12 20.92         23.5 rqEU129568
     K13U17M @C2013 08 31.47896 01 02 00.443+04 12 19.80         23.7 rqEU129568
     K13U17M @C2013 09 04.41593 01 01 46.995+04 10 35.12         23.9 rqEU129568
     K13U17M @C2013 09 04.45871 01 01 46.840+04 10 33.93         23.6 rqEU129568
     K13U17M @C2013 10 06.39713 00 59 34.480+03 54 30.56         23.5 rqEU129568
     K13U17M @C2013 10 06.47088 00 59 34.156+03 54 28.28         24.1 rqEU129568
     K13U17M @C2013 10 06.47992 00 59 34.095+03 54 27.99         23.6 rqEU129568
     K13U17M @C2013 10 09.52057 00 59 20.365+03 52 52.67         23.7 rqEU129568
     K13U17M*@C2013 10 31.23884 00 57 45.553+03 42 06.78         23.7 rqEU129568
     K13U17M @C2013 10 31.28183 00 57 45.374+03 42 05.65         23.7 rqEU129568
     K13U17M @C2013 10 31.32461 00 57 45.195+03 42 04.43         23.5 rqEU129568
     K13U17M @C2013 11 01.26510 00 57 41.372+03 41 38.86         23.6 rqEU129568
     K13U17M @C2013 11 01.38800 00 57 40.851+03 41 35.66         23.7 rqEU129568
     K13U17M @C2013 11 05.42210 00 57 24.829+03 39 49.01         23.8 rqEU129568
     K13U17M @C2013 11 29.22781 00 56 08.335+03 31 30.92         23.7 rqEU129568
     K13U17M @C2013 11 29.23325 00 56 08.340+03 31 30.86         24.0 rqEU129568
     K13U17M @C2013 11 29.23812 00 56 08.310+03 31 30.77         23.8 rqEU129568
     K13U17M @C2013 11 29.27951 00 56 08.221+03 31 30.43         23.4 rqEU129568
     K13U17M @C2013 11 29.28398 00 56 08.199+03 31 29.71         24.2 rqEU129568
     K13U17M @C2013 11 29.30546 00 56 08.138+03 31 29.81         23.7 rqEU129568
     K13U17M @C2013 12 04.25494 00 55 57.122+03 30 20.13         23.7 rqEU129568
     K13U17M @C2013 12 04.30703 00 55 57.014+03 30 19.19         23.7 rqEU129568
     K13U17M @C2013 12 05.25309 00 55 55.147+03 30 07.43         23.6 rqEU129568
     K13U17M @C2014 07 27.57602 01 08 37.319+04 37 12.65         23.9 rqEU129568
     K13U17M @C2014 08 22.55261 01 07 55.088+04 29 59.82         23.8 rqEU129568
     K13U17M @C2014 08 28.41447 01 07 38.546+04 27 42.04         23.6 rqEU129568
     K13U17M @C2014 10 23.36792 01 03 49.083+04 00 08.53         23.4 rqEU129568
     K13U17M @C2014 10 25.28038 01 03 40.755+03 59 12.85         23.9 rqEU129568
     K13U17M @C2014 10 25.30740 01 03 40.653+03 59 12.15         24.8 uqEU129568
     K13U17M @C2014 10 25.31593 01 03 40.602+03 59 12.22         24.7 uqEU129568
     K13U17M @C2014 10 25.33867 01 03 40.493+03 59 11.35         23.2 rqEU129568
     K13U17M @C2014 10 27.31342 01 03 31.987+03 58 14.40         24.1 rqEU129568
     K13U17M @C2014 10 27.35865 01 03 31.788+03 58 13.20         24.7 uqEU129568
     K13U17M @C2014 10 27.36433 01 03 31.770+03 58 12.95         23.8 rqEU129568
     K13U17M @C2014 10 27.40661 01 03 31.589+03 58 11.78         23.8 rqEU129568
     K13U17M @C2014 11 24.23611 01 01 48.939+03 47 06.94         24.0 rqEU129568
     K13U17M @C2014 11 25.23226 01 01 46.082+03 46 49.05         23.9 rqEU129568
     K13U17M @C2014 12 17.26663 01 01 02.274+03 42 25.35         24.0 rqEU129568
     K13U17M @C2015 01 18.22018 01 01 14.833+03 44 14.66         24.1 rqEU129568
 
Observer details:
568 Mauna Kea.  Observers J. J. Kavelaars, B. Gladman, L. Allen, J.-M. Petit,
    M. T. Bannister, B. J. Gladman, T. Burdullis.  Measurers L. Allen,
    B. Gladman, J.-M. Petit, J. J. Kavelaars, S. D. J. Gwyn, Y.-T. Chen,
    M. Alexandersen.  3.5-m Canada-France-Hawaii Telescope + CCD, 3.6-m
    Canada-France-Hawaii Telescope + CCD.
 
Orbital elements:
2013 UM17
Epoch 2017 Sept. 4.0 TT = JDT 2458000.5                 MPC
M  76.49850              (2000.0)            P               Q
n   0.00358154     Peri.  109.63023     +0.42360581     +0.90558156
a  42.3080644      Node   185.58129     -0.89238258     +0.41303221
e   0.0790794      Incl.   13.02072     -0.15560030     +0.09657346
P 275              H    7.7           G   0.15           U   2
Residuals in seconds of arc
040921 568  0.1-  0.2-    131031 568  0.1-  0.0     140828 568  0.1-  0.0
040921 568  0.2-  0.1-    131031 568  0.1-  0.1-    141023 568  0.1-  0.1-
040921 568  0.3+  0.2-    131101 568  0.1+  0.0     141025 568  0.1-  0.0
040922 568  0.1-  0.6+    131101 568  0.1-  0.1+    141025 568  0.2+  0.1+
130802 568  0.1+  0.0     131105 568  0.0   0.0     141025 568  0.0   0.4+
130802 568  0.1+  0.1-    131129 568  0.0   0.0     141025 568  0.2-  0.2+
130830 568  0.2-  0.1-    131129 568  0.3+  0.0     141027 568  0.1-  0.0
130831 568  0.1+  0.0     131129 568  0.0   0.0     141027 568  0.1-  0.1+
130831 568  0.0   0.0     131129 568  0.2+  0.3+    141027 568  0.0   0.0
130904 568  0.1+  0.0     131129 568  0.1+  0.4-    141027 568  0.0   0.0
130904 568  0.1+  0.0     131129 568  0.0   0.1+    141124 568  0.0   0.0
131006 568  0.1+  0.1-    131204 568  0.2-  0.0     141125 568  0.1+  0.0
131006 568  0.3+  0.0     131204 568  0.1-  0.3-    141217 568  0.3+  0.1+
131006 568  0.0   0.0     131205 568  0.1-  0.2-    150118 568  0.1-  0.0
131009 568  0.4-  0.0     140727 568  0.0   0.0
131031 568  0.1-  0.1-    140822 568  0.1+  0.1+

Ephemeris:
2013 UM17                a,e,i = 42.31, 0.08, 13                 q = 38.962
Date    TT    R. A. (2000) Decl.     Delta      r     Elong.  Phase     V
2017 09 20    01 22 34.6 +04 58 01  40.8682 41.7864   155.8     0.6    24.0
...
2017 10 05    01 21 30.9 +04 50 28  40.8032 41.7896   170.4     0.2    23.9
...
2017 10 13    01 20 55.0 +04 46 24  40.7954 41.7913   176.4     0.1    23.9
...
2017 10 19    01 20 27.9 +04 43 23  40.8022 41.7925   173.7     0.1    23.9
2017 10 20    01 20 23.4 +04 42 53  40.8044 41.7927   172.9     0.2    23.9
2017 10 21    01 20 18.9 +04 42 24  40.8069 41.7929   172.0     0.2    23.9
...
2017 10 27    01 19 52.2 +04 39 30  40.8282 41.7942   166.2     0.3    23.9
...
2017 11 04    01 19 17.8 +04 35 52  40.8731 41.7959   158.3     0.5    24.0
...
2017 11 19    01 18 19.7 +04 29 56  41.0051 41.7990   143.0     0.8    24.0

A. U. Tomatic                (C) Copyright 2017 MPC           M.P.E.C. 2017-U129



More information about the Iaude mailing list